| time (UTC) | temp C | wind direction | speed KPH | gust KPH | rain 1hr cm | rain 24hr cm | rain mn cm | humidity % | barometer mb |
| 20260903220519 | 31 | 227 | 4.8 | 6.4 | 0.00 | 0.81 | 0.81 | 81 | 1017.0 |
| 20260903215519 | 31 | 215 | 4.8 | 8.0 | 0.00 | 0.81 | 0.81 | 81 | 1016.9 |
| 20260903214517 | 31 | 201 | 4.8 | 9.7 | 0.00 | 0.81 | 0.81 | 80 | 1017.0 |
| 20260903213517 | 30 | 194 | 6.4 | 11.3 | 0.00 | 0.81 | 0.81 | 81 | 1017.0 |
| 20260903212516 | 30 | 198 | 4.8 | 11.3 | 0.00 | 0.81 | 0.81 | 83 | 1017.0 |
| 20260903211521 | 30 | 224 | 8.0 | 14.5 | 0.00 | 0.81 | 0.81 | 82 | 1017.1 |
| 20260903210546 | 30 | 226 | 6.4 | 12.9 | 0.00 | 0.81 | 0.81 | 82 | 1017.1 |
| 20260903205551 | 30 | 178 | 9.7 | 14.5 | 0.00 | 0.81 | 0.81 | 83 | 1017.1 |
| 20260903204519 | 30 | 223 | 8.0 | 12.9 | 0.00 | 0.81 | 0.81 | 81 | 1017.2 |
| 20260903203523 | 30 | 194 | 6.4 | 9.7 | 0.00 | 0.81 | 0.81 | 82 | 1017.3 |
| 20260903202528 | 29 | 235 | 6.4 | 11.3 | 0.00 | 0.81 | 0.81 | 82 | 1017.6 |
| 20260903201535 | 30 | 237 | 9.7 | 14.5 | 0.00 | 0.81 | 0.81 | 80 | 1017.6 |
| 20260903200520 | 30 | 229 | 9.7 | 12.9 | 0.00 | 0.81 | 0.81 | 80 | 1017.6 |
| 20260903195525 | 29 | 222 | 8.0 | 11.3 | 0.00 | 0.81 | 0.81 | 81 | 1017.8 |
| 20260903194550 | 29 | 189 | 8.0 | 16.1 | 0.00 | 0.81 | 0.81 | 82 | 1017.8 |
| 20260903193517 | 29 | 210 | 9.7 | 24.1 | 0.00 | 0.81 | 0.81 | 82 | 1018.1 |
| 20260903192522 | 28 | 226 | 9.7 | 14.5 | 0.00 | 0.81 | 0.81 | 83 | 1018.1 |
| 20260903191527 | 28 | 203 | 9.7 | 16.1 | 0.00 | 0.81 | 0.81 | 84 | 1018.2 |
| 20260903190532 | 28 | 265 | 9.7 | 17.7 | 0.00 | 0.81 | 0.81 | 84 | 1018.3 |
| 20260903185539 | 28 | 248 | 8.0 | 11.3 | 0.00 | 0.81 | 0.81 | 82 | 1018.3 |
| 20260903184524 | 28 | 259 | 9.7 | 14.5 | 0.00 | 0.81 | 0.81 | 82 | 1018.6 |
| 20260903183529 | 28 | 250 | 9.7 | 20.9 | 0.00 | 0.81 | 0.81 | 81 | 1018.8 |
| 20260903182516 | 28 | 241 | 9.7 | 12.9 | 0.00 | 0.81 | 0.81 | 82 | 1018.8 |
| 20260903181521 | 28 | 206 | 8.0 | 12.9 | 0.00 | 0.81 | 0.81 | 83 | 1018.9 |
| 20260903180526 | 27 | 213 | 8.0 | 12.9 | 0.00 | 0.81 | 0.81 | 84 | 1019.1 |
| 20260903175532 | 27 | 224 | 9.7 | 16.1 | 0.00 | 0.81 | 0.81 | 84 | 1019.2 |
| 20260903174518 | 27 | 226 | 9.7 | 14.5 | 0.00 | 0.81 | 0.81 | 86 | 1019.4 |
| 20260903173524 | 27 | 242 | 11.3 | 14.5 | 0.00 | 0.81 | 0.81 | 86 | 1019.5 |
| 20260903172528 | 27 | 244 | 11.3 | 17.7 | 0.00 | 0.81 | 0.81 | 87 | 1019.5 |
| 20260903171533 | 27 | 223 | 11.3 | 17.7 | 0.00 | 0.86 | 0.81 | 85 | 1019.5 |
| 20260903170520 | 26 | 255 | 11.3 | 17.7 | 0.00 | 0.86 | 0.81 | 87 | 1019.6 |
| 20260903165525 | 26 | 232 | 11.3 | 19.3 | 0.00 | 0.91 | 0.81 | 89 | 1019.9 |
| 20260903164530 | 26 | 206 | 8.0 | 14.5 | 0.00 | 0.94 | 0.81 | 90 | 1020.0 |
| 20260903163517 | 25 | 260 | 8.0 | 9.7 | 0.00 | 0.97 | 0.81 | 93 | 1020.1 |
| 20260903162602 | 25 | 206 | 9.7 | 14.5 | 0.00 | 1.02 | 0.81 | 93 | 1020.4 |
| 20260903161547 | 25 | 261 | 11.3 | 19.3 | 0.00 | 1.07 | 0.81 | 93 | 1020.6 |
| 20260903160532 | 25 | 276 | 9.7 | 24.1 | 0.00 | 1.14 | 0.81 | 94 | 1020.6 |
| 20260903155519 | 24 | 217 | 12.9 | 17.7 | 0.00 | 1.27 | 0.81 | 97 | 1020.9 |
| 20260903154524 | 25 | 266 | 14.5 | 20.9 | 0.05 | 1.63 | 0.81 | 97 | 1021.5 |
| 20260903153528 | 23 | 249 | 11.3 | 17.7 | 0.05 | 1.63 | 0.81 | 99 | 1020.7 |
| 20260903152516 | 23 | 255 | 8.0 | 11.3 | 0.10 | 1.63 | 0.81 | 99 | 1020.6 |
| 20260903151541 | 23 | 260 | 4.8 | 8.0 | 0.10 | 1.63 | 0.81 | 99 | 1020.4 |
| 20260903150526 | 22 | 165 | 1.6 | 3.2 | 0.15 | 1.63 | 0.81 | 99 | 1020.2 |
| 20260903145530 | 21 | 192 | 8.0 | 12.9 | 0.20 | 1.63 | 0.81 | 99 | 1020.4 |
| 20260903144538 | -17 | 0.0 | 0.0 | 0.15 | 1.57 | 0.76 | 1021.0 | ||
| 20260903143522 | -17 | 0.0 | 0.0 | 0.15 | 1.57 | 0.76 | 1022.0 | ||
| 20260903142528 | 21 | 4.8 | 4.8 | 0.10 | 1.52 | 0.71 | 99 | 1022.6 | |
| 20260903141533 | 21 | 184 | 3.2 | 4.8 | 0.10 | 1.52 | 0.71 | 99 | 1022.9 |
| 20260903140520 | 22 | 310 | 8.0 | 14.5 | 0.05 | 1.47 | 0.66 | 99 | 1023.2 |
| 20260903135524 | 22 | 337 | 11.3 | 20.9 | 0.00 | 1.42 | 0.61 | 99 | 1020.9 |
| 20260903134530 | 22 | 266 | 6.4 | 9.7 | 0.00 | 1.42 | 0.61 | 99 | 1020.8 |
| 20260903133536 | 22 | 266 | 8.0 | 11.3 | 0.00 | 1.42 | 0.61 | 99 | 1020.5 |
| 20260903132521 | 22 | 239 | 6.4 | 11.3 | 0.00 | 1.42 | 0.61 | 99 | 1020.8 |
| 20260903131527 | 22 | 250 | 8.0 | 14.5 | 0.00 | 1.42 | 0.61 | 99 | 1020.8 |
| 20260903130526 | 22 | 287 | 3.2 | 4.8 | 0.00 | 1.42 | 0.61 | 99 | 1020.7 |
| 20260903125519 | 22 | 211 | 4.8 | 9.7 | 0.00 | 1.42 | 0.61 | 99 | 1021.0 |
| 20260903124524 | 21 | 240 | 9.7 | 16.1 | 0.00 | 1.42 | 0.61 | 99 | 1021.0 |
| 20260903123523 | 21 | 246 | 3.2 | 6.4 | 0.00 | 1.42 | 0.61 | 99 | 1020.8 |
| 20260903122516 | 21 | 284 | 1.6 | 4.8 | 0.03 | 1.42 | 0.61 | 99 | 1020.8 |
| 20260903121521 | 21 | 174 | 3.2 | 4.8 | 0.05 | 1.42 | 0.61 | 99 | 1020.9 |
| 20260903120520 | 20 | 248 | 3.2 | 4.8 | 0.05 | 1.42 | 0.61 | 99 | 1021.1 |
| 20260903115519 | -17 | 256 | 3.2 | 3.2 | 0.08 | 1.42 | 0.61 | 1021.1 | |
| 20260903114517 | 20 | 238 | 4.8 | 6.4 | 0.10 | 1.42 | 0.61 | 99 | 1020.9 |
| 20260903113517 | 20 | 269 | 3.2 | 4.8 | 0.13 | 1.42 | 0.61 | 99 | 1020.6 |
| 20260903112516 | 20 | 187 | 1.6 | 4.8 | 0.13 | 1.40 | 0.58 | 99 | 1020.5 |
| 20260903111533 | 20 | 248 | 3.2 | 6.4 | 0.10 | 1.37 | 0.56 | 99 | 1020.3 |
| 20260903110540 | 20 | 275 | 4.8 | 6.4 | 0.10 | 1.37 | 0.56 | 99 | 1020.4 |
| 20260903105524 | 20 | 139 | 4.8 | 6.4 | 0.08 | 1.35 | 0.53 | 99 | 1021.3 |
| 20260903104530 | 20 | 158 | 0.0 | 4.8 | 0.05 | 1.32 | 0.51 | 99 | 1022.2 |
| 20260903103517 | 20 | 251 | 3.2 | 4.8 | 0.43 | 1.30 | 0.48 | 99 | 1021.9 |
| 20260903102521 | 20 | 0.0 | 0.0 | 0.43 | 1.27 | 0.46 | 99 | 1021.8 | |
| 20260903101526 | 20 | 197 | 1.6 | 3.2 | 0.43 | 1.27 | 0.46 | 99 | 1021.5 |
| 20260903100551 | 20 | 207 | 1.6 | 4.8 | 0.46 | 1.27 | 0.46 | 99 | 1021.5 |
| 20260903095539 | 20 | 138 | 1.6 | 4.8 | 0.46 | 1.27 | 0.46 | 99 | 1022.4 |
| 20260903094524 | 20 | 0.0 | 0.0 | 0.46 | 1.27 | 0.46 | 99 | 1022.9 | |
| 20260903093549 | 20 | 287 | 4.8 | 6.4 | 0.05 | 0.86 | 0.05 | 99 | 1021.7 |
| 20260903092536 | 20 | 154 | 3.2 | 6.4 | 0.03 | 0.84 | 0.03 | 99 | 1021.7 |
| 20260903091521 | 20 | 183 | 4.8 | 6.4 | 0.03 | 0.84 | 0.03 | 99 | 1022.0 |
| 20260903090525 | 21 | 72 | 3.2 | 6.4 | 0.00 | 0.81 | 0.00 | 99 | 1022.0 |
| 20260903085531 | 21 | 331 | 6.4 | 11.3 | 0.00 | 0.81 | 0.00 | 99 | 1021.3 |
| 20260903084518 | 21 | 173 | 3.2 | 6.4 | 0.00 | 0.81 | 0.00 | 99 | 1021.3 |
| 20260903083522 | 21 | 178 | 4.8 | 6.4 | 0.00 | 0.81 | 0.00 | 99 | 1021.7 |
| 20260903082528 | 20 | 152 | 1.6 | 4.8 | 0.00 | 0.81 | 0.00 | 99 | 1021.4 |
| 20260903081533 | 20 | 178 | 3.2 | 6.4 | 0.00 | 0.81 | 0.00 | 99 | 1021.4 |
| 20260903080540 | 20 | 258 | 3.2 | 8.0 | 0.00 | 0.81 | 0.00 | 99 | 1021.3 |
| 20260903075524 | 20 | 154 | 3.2 | 8.0 | 0.00 | 0.81 | 0.00 | 99 | 1021.4 |
| 20260903074530 | 20 | 139 | 4.8 | 6.4 | 0.00 | 0.81 | 0.00 | 99 | 1021.1 |
| 20260903073517 | 21 | 263 | 6.4 | 11.3 | 0.00 | 0.81 | 0.00 | 99 | 1021.4 |
| 20260903072522 | 20 | 317 | 4.8 | 8.0 | 0.00 | 0.81 | 0.00 | 99 | 1020.4 |
| 20260903071527 | 20 | 0.0 | 0.0 | 0.00 | 0.81 | 0.00 | 99 | 1020.2 | |
| 20260903070532 | 20 | 0.0 | 0.0 | 0.00 | 0.81 | 0.00 | 99 | 1020.1 | |
| 20260903065539 | 20 | 180 | 0.0 | 3.2 | 0.00 | 0.81 | 0.00 | 99 | 1020.1 |
| 20260903064524 | 20 | 191 | 1.6 | 3.2 | 0.00 | 0.81 | 0.00 | 99 | 1020.5 |
| 20260903063529 | 20 | 0.0 | 0.0 | 0.00 | 0.81 | 0.00 | 99 | 1020.3 | |
| 20260903062516 | 20 | 0.0 | 0.0 | 0.00 | 0.81 | 0.00 | 99 | 1020.5 | |
| 20260903061521 | 20 | 0.0 | 0.0 | 0.00 | 0.81 | 0.00 | 99 | 1020.5 | |
| 20260903060526 | 20 | 0.0 | 0.0 | 0.00 | 0.81 | 0.00 | 99 | 1020.5 | |
| 20260903055531 | 20 | 0.0 | 1.6 | 0.00 | 0.81 | 0.00 | 99 | 1020.5 | |
| 20260903054518 | 20 | 0.0 | 0.0 | 0.00 | 0.81 | 0.00 | 99 | 1020.5 | |
| 20260903053524 | 20 | 234 | 1.6 | 3.2 | 0.00 | 0.81 | 0.00 | 99 | 1020.6 |
| 20260903052529 | 20 | 308 | 1.6 | 6.4 | 0.00 | 0.81 | 0.00 | 99 | 1020.6 |
| 20260903051515 | 20 | 295 | 1.6 | 3.2 | 0.00 | 0.81 | 0.00 | 99 | 1020.6 |
| 20260903050520 | 20 | 45 | 0.0 | 1.6 | 0.00 | 0.81 | 0.00 | 99 | 1020.5 |
| 20260903045546 | 20 | 189 | 3.2 | 6.4 | 0.00 | 0.81 | 0.00 | 99 | 1020.9 |
| 20260903044530 | 20 | 0.0 | 0.0 | 0.00 | 0.81 | 0.00 | 99 | 1020.6 | |
| 20260903043517 | 20 | 0.0 | 1.6 | 0.00 | 0.81 | 0.00 | 99 | 1020.4 | |
| 20260903042522 | 20 | 0.0 | 0.0 | 0.00 | 0.81 | 0.00 | 99 | 1020.6 | |
| 20260903041527 | 20 | 0.0 | 0.0 | 0.00 | 0.81 | 0.00 | 99 | 1020.7 | |
| 20260903040532 | 20 | 158 | 0.0 | 3.2 | 0.00 | 0.81 | 0.00 | 99 | 1020.8 |
| 20260903035519 | 20 | 0.0 | 0.0 | 0.00 | 0.81 | 0.81 | 99 | 1020.9 | |
| 20260903034524 | 20 | 0.0 | 0.0 | 0.00 | 0.81 | 0.81 | 99 | 1020.7 | |
| 20260903033548 | 21 | 0.0 | 0.0 | 0.00 | 0.81 | 0.81 | 99 | 1020.8 | |
| 20260903032516 | 21 | 0.0 | 0.0 | 0.00 | 0.81 | 0.81 | 99 | 1021.1 | |
| 20260903031520 | 21 | 0.0 | 0.0 | 0.00 | 0.81 | 0.81 | 99 | 1021.0 | |
| 20260903030525 | 21 | 0.0 | 0.0 | 0.00 | 0.81 | 0.81 | 99 | 1020.8 | |
| 20260903025524 | 21 | 180 | 0.0 | 3.2 | 0.00 | 0.81 | 0.81 | 99 | 1021.1 |
| 20260903024517 | 21 | 0.0 | 0.0 | 0.00 | 0.81 | 0.81 | 99 | 1021.0 | |
| 20260903023522 | 21 | 0.0 | 0.0 | 0.00 | 0.81 | 0.81 | 99 | 1020.6 | |
| 20260903022521 | 21 | 0.0 | 0.0 | 0.00 | 0.81 | 0.81 | 99 | 1020.4 | |
| 20260903021520 | 21 | 0.0 | 0.0 | 0.00 | 0.81 | 0.81 | 99 | 1020.4 | |
| 20260903020559 | 21 | 0.0 | 0.0 | 0.00 | 0.81 | 0.81 | 99 | 1020.4 | |
| 20260903015538 | 21 | 0.0 | 0.0 | 0.00 | 0.81 | 0.81 | 99 | 1020.5 | |
| 20260903014517 | 21 | 135 | 0.0 | 3.2 | 0.00 | 0.81 | 0.81 | 99 | 1020.9 |
| 20260903013516 | 21 | 163 | 1.6 | 3.2 | 0.00 | 0.81 | 0.81 | 99 | 1020.8 |
| 20260903012521 | 21 | 0.0 | 0.0 | 0.00 | 0.81 | 0.81 | 99 | 1020.7 | |
| 20260903011526 | 21 | 0.0 | 0.0 | 0.00 | 0.81 | 0.81 | 99 | 1020.7 | |
| 20260903010531 | 22 | 0.0 | 1.6 | 0.00 | 0.81 | 0.81 | 99 | 1020.6 | |
| 20260903005558 | 22 | 0.0 | 0.0 | 0.00 | 0.81 | 0.81 | 99 | 1020.3 | |
| 20260903004523 | 22 | 0.0 | 0.0 | 0.00 | 0.81 | 0.81 | 99 | 1020.2 | |
| 20260903003548 | 22 | 127 | 1.6 | 3.2 | 0.00 | 0.81 | 0.81 | 99 | 1020.5 |
| 20260903002553 | 22 | 0.0 | 0.0 | 0.00 | 0.81 | 0.81 | 99 | 1020.7 | |
| 20260903001520 | 23 | 0.0 | 1.6 | 0.00 | 0.81 | 0.81 | 99 | 1020.8 | |
| 20260903000524 | 23 | 188 | 0.0 | 3.2 | 0.00 | 0.81 | 0.81 | 99 | 1020.8 |
| 20260902235529 | 23 | 0.0 | 0.0 | 0.00 | 0.81 | 0.81 | 99 | 1020.6 | |
| 20260902234517 | 24 | 315 | 0.0 | 3.2 | 0.00 | 0.81 | 0.81 | 99 | 1020.8 |
| 20260902233521 | 24 | 0.0 | 0.0 | 0.00 | 0.81 | 0.81 | 99 | 1021.0 | |
| 20260902232525 | 24 | 0.0 | 0.0 | 0.00 | 0.81 | 0.81 | 99 | 1021.0 | |
| 20260902231611 | 24 | 0.0 | 0.0 | 0.00 | 0.81 | 0.81 | 99 | 1020.9 | |
| 20260902230538 | 24 | 151 | 3.2 | 6.4 | 0.00 | 0.81 | 0.81 | 99 | 1020.7 |
| 20260902225522 | 25 | 0.0 | 0.0 | 0.00 | 0.81 | 0.81 | 99 | 1020.8 | |
| 20260902224527 | 25 | 0.0 | 0.0 | 0.00 | 0.81 | 0.81 | 98 | 1020.6 | |
| 20260902223553 | 26 | 0.0 | 0.0 | 0.00 | 0.81 | 0.81 | 96 | 1020.5 | |
| 20260902222519 | 26 | 0.0 | 0.0 | 0.00 | 0.81 | 0.81 | 94 | 1020.7 | |
| 20260902221524 | 27 | 0.0 | 0.0 | 0.00 | 0.81 | 0.81 | 90 | 1020.7 |